STARLINK-4340 (53494 NORAD) Tracking and Keplerian Element Data

This shows tracking and keplerian element data for the satellite.

Feedback or suggestion? Click here.




ElementValue
Catalog53494
NameSTARLINK-4340
Epoch Orbit1522
Epoch Day324.88052037
Epoch Year2022
RAAN83.9514
Inclination97.6565
Eccentricity0.0003227
Argument of Perigee2.474
Mean Anonmoly357.65
Mean Motion15.01258877
Decay Rate-1.72E-06
L11 53494U 22099AF 22324.88052037 -.00000172 00000+0 -88094-5 0 9998
L22 53494 97.6565 83.9514 0003227 2.4740 357.6500 15.01258877 15226



Live tracking and technical data element details for STARLINK-4340 (NORAD 53494). STARLINK-4340 can be tracked NOW for your location showing map with azimuth and elevation plus other details from your city location.







IsCatalogInMostPopularTable: catalog: 53494, numindb: 5
Update: records affected: 1



GetName: 53494 STARLINK-4340

Hit Count: updated at: Thu, 08 Dec 2022 19:33:39 GMT